This is the latest recevied weather packets stored in our database for station/object K9TLD. If no packets are shown the sender has not sent any weather packets the latest 10 day(s).
| Time | Temp. | Humidity | Pressure | Rain* | Wind** | Luminosity | Snow |
|---|---|---|---|---|---|---|---|
| 1778180735 | 8.33° C | 62% | 1013.6 hPa | 0 mm | - | 172 W/m² | - |
| 1778180434 | 7.78° C | 63% | 1013.7 hPa | 0 mm | - | 175 W/m² | - |
| 1778180132 | 7.78° C | 62% | 1013.8 hPa | 0 mm | - | 124 W/m² | - |
| 1778179828 | 7.78° C | 64% | 1013.5 hPa | 0 mm | - | 81 W/m² | - |
| 1778179526 | 8.33° C | 63% | 1013.7 hPa | 0 mm | - | 127 W/m² | - |
| 1778179224 | 8.89° C | 64% | 1013.5 hPa | 0 mm | - | 191 W/m² | - |
| 1778178919 | 9.44° C | 62% | 1013.4 hPa | 0 mm | - | 159 W/m² | - |
| 1778178617 | 10° C | 61% | 1013.5 hPa | 0 mm | - | 180 W/m² | - |
| 1778178313 | 10° C | 62% | 1013.5 hPa | 0 mm | - | 265 W/m² | - |
| 1778178009 | 10° C | 60% | 1013.5 hPa | 0 mm | - | 338 W/m² | - |
| 1778177706 | 9.44° C | 59% | 1013.8 hPa | 0 mm | - | 175 W/m² | - |
| 1778177402 | 10° C | 60% | 1013.8 hPa | 0 mm | - | 248 W/m² | - |
| 1778177099 | 11.11° C | 54% | 1014 hPa | 0 mm | - | 187 W/m² | - |
| 1778176794 | 10.56° C | 48% | 1014 hPa | 0 mm | - | 264 W/m² | - |
| 1778176492 | 10.56° C | 45% | 1014 hPa | 0 mm | - | 206 W/m² | - |
| 1778176189 | 10° C | 54% | 1014.1 hPa | 0 mm | - | 176 W/m² | - |
| 1778175886 | 10.56° C | 53% | 1014.2 hPa | 0 mm | - | 150 W/m² | - |
| 1778175583 | 10.56° C | 46% | 1014 hPa | 0 mm | - | 146 W/m² | - |
| 1778175281 | 11.11° C | 45% | 1014.1 hPa | 0 mm | - | 126 W/m² | - |
| 1778174977 | 11.11° C | 43% | 1014.2 hPa | 0 mm | - | 192 W/m² | - |
| 1778174674 | 11.11° C | 44% | 1014.3 hPa | 0 mm | - | 210 W/m² | - |
| 1778174370 | 11.11° C | 44% | 1014.2 hPa | 0 mm | - | 714 W/m² | - |
| 1778174066 | 11.67° C | 46% | 1014.3 hPa | 0 mm | - | 328 W/m² | - |
| 1778173764 | 11.11° C | 45% | 1014.6 hPa | 0 mm | - | 383 W/m² | - |
| 1778173460 | 11.11° C | 47% | 1014.4 hPa | 0 mm | - | 241 W/m² | - |
* Rain latest hour (hover to see other rain measurements)
** Current wind speed in m/s (hover to see current wind gust speed)